Regional Weather Roundup
Issued by NWS

Home | Current Version | Previous Version | Graphics & Text | Print | Product List | Glossary On
Versions: 1 2 3 4 5 6 7 8 9 10 11 12 13 14 15 16 17 18 19 20 21 22 23 24 25 26 27 28 29 30 31 32 33 34 35 36 37 38 39 40 41 42 43 44 45 46 47 48 49 50
000
ASUS43 KOAX 230310
RWRNE

WEATHER ROUNDUP FOR NEBRASKA
NATIONAL WEATHER SERVICE OMAHA NE
900 PM CST SUN JAN 22 2017

NOTES: SATELLITE DATA IS BEING USED TO AUGMENT CLOUD COVER ABOVE
       12000 FEET.
       "FAIR" INDICATES FEW OR NO CLOUDS BELOW 12,000 FEET WITH NO
       SIGNIFICANT WEATHER AND/OR OBSTRUCTIONS TO VISIBILITY.

  * THESE STATIONS DO NOT REPORT WEATHER SUCH AS RAIN...SNOW OR FOG.

NEZ001>004-019>022-054>056-230400-
NEBRASKA PANHANDLE

CITY           SKY/WX    TMP DP  RH WIND       PRES   REMARKS
SCOTTSBLUFF    CLOUDY    27  19  72 S3        29.86F
ALLIANCE       CLEAR     21  17  84 W6        29.86F WCI  13
CHADRON        CLEAR     25  21  85 S3        29.86F
KIMBALL        CLEAR     27  21  80 CALM      29.87F
SIDNEY         CLEAR     20  16  84 W8        29.89F WCI  10
$$

NEZ057>060-069>072-079>082-230400-
SOUTHWEST NEBRASKA

CITY           SKY/WX    TMP DP  RH WIND       PRES   REMARKS
NORTH PLATTE   CLEAR     26  22  84 NW6       29.90R WCI  19
IMPERIAL       CLEAR     31  25  78 W5        29.91S WCI  26
LEXINGTON      CLEAR     30  26  84 W8        29.90R WCI  23
MCCOOK         CLEAR     31  25  78 W8        29.90S WCI  23
OGALLALA       CLEAR     27  23  85 W7        29.91R WCI  19
$$

NEZ005>010-023>029-035>040-094-230400-
NORTH CENTRAL NEBRASKA

CITY           SKY/WX    TMP DP  RH WIND       PRES   REMARKS
VALENTINE      CLEAR     21  18  88 CALM      29.87F
AINSWORTH      CLEAR     25  22  90 W6        29.87F WCI  18
BROKEN BOW     CLEAR     32  25  75 N3        29.88R
O`NEILL        CLEAR     27  25  93 N5        29.89R WCI  22
ORD            CLEAR     28  23  81 NW5       29.88R WCI  23
THEDFORD       CLEAR     28  24  84 W5        29.90R WCI  23
$$

NEZ041-046>049-061>064-073>077-083>087-230400-
SOUTH CENTRAL NEBRASKA

CITY           SKY/WX    TMP DP  RH WIND       PRES   REMARKS
GRAND ISLAND   CLEAR     31  28  89 NW6       29.89R WCI  25
AURORA         CLEAR     32  29  88 NW3       29.88S
HASTINGS       CLEAR     36  30  79 W5        29.89S WCI  32
HEBRON         CLEAR     29  28  96 CALM      29.89F
HOLDREGE       CLEAR     32  26  80 NW5       29.90R WCI  27
KEARNEY *      CLEAR     34  27  75 NW6       29.90R WCI  29
YORK           CLEAR     32  32 100 CALM      29.89R
$$

NEZ011>018-030>034-042>045-230400-
NORTHEAST NEBRASKA

CITY           SKY/WX    TMP DP  RH WIND       PRES   REMARKS
NORFOLK        CLEAR     30  25  81 NW9       29.87R WCI  22
ALBION         CLEAR     30  20  65 N5        29.88S WCI  26
BLAIR          CLEAR     32  31  95 N5        29.86S WCI  28
FREMONT        FOG       29  29 100 CALM      29.88S VSB 3/4
TEKAMAH        CLEAR     31  28  89 NW3       29.88S FOG
WAYNE          CLEAR     28  27  96 N3        29.88S FOG
$$

NEZ050>053-065>068-078-088>093-230400-
SOUTHEAST NEBRASKA

CITY           SKY/WX    TMP DP  RH WIND       PRES   REMARKS
LINCOLN        CLEAR     28  26  92 CALM      29.89F
OMAHA EPPLEY   CLEAR     32  27  81 N8        29.88S WCI  25
BEATRICE       CLEAR     28  28  99 CALM      29.88F FOG
FALLS CITY     CLEAR     32  30  92 NW7       29.88R WCI  26
NEBRASKA CITY  CLEAR     32  32 100 NW8       29.87S WCI  25
PLATTSMOUTH    CLEAR     32  29  90 NW8       29.87S WCI  25
$$

NEZ044-045-051>053-067-230400-
OMAHA AREA

CITY           SKY/WX    TMP DP  RH WIND       PRES   REMARKS
OMAHA EPPLEY   CLEAR     32  27  81 N8        29.88S WCI  25
BLAIR          CLEAR     32  31  95 N5        29.86S WCI  28
FREMONT        FOG       29  29 100 CALM      29.88S VSB 3/4
MILLARD          N/A     31  30  96 CALM      29.88S FOG
OFFUTT AFB     CLEAR     29  29 100 NW5       29.87S WCI  23
PLATTSMOUTH    CLEAR     32  29  90 NW8       29.87S WCI  25
WAHOO          FAIR      32  30  92 NW5       29.88S WCI  28
$$



USA.gov is the U.S. government's official web portal to all federal, state and local government web resources and services.